Regional Weather Roundup
Issued by NWS

Home | Current Version | Previous Version | Graphics & Text | Print | Product List | Glossary On
Versions: 1 2 3 4 5 6 7 8 9 10 11 12 13 14 15 16 17 18 19 20 21 22 23 24 25 26 27 28 29 30 31 32 33 34 35 36 37 38 39 40 41 42 43 44 45 46 47 48 49 50
000
ASUS43 KIND 230409
RWRIN

WEATHER ROUNDUP FOR INDIANA
NATIONAL WEATHER SERVICE INDIANAPOLIS IN
1200 AM EDT SAT MAY 23 2015

NOTE: "FAIR" INDICATES FEW OR NO CLOUDS BELOW 12,000 FEET WITH NO
SIGNIFICANT WEATHER AND/OR OBSTRUCTIONS TO VISIBILITY.

* - STATION DOES NOT REPORT WEATHER SUCH AS PRECIPITATION OR FOG.

+ - STATION NOT QUALITY CONTROLLED BY THE NATIONAL WEATHER SERVICE.
    USE DATA WITH CAUTION...ESPECIALLY DEWPOINT AND RELATIVE
    HUMIDITY OBSERVATIONS.

INZ001>003-010>013-019-020-230500-
NORTHWEST INDIANA

CITY           SKY/WX    TMP DP  RH WIND       PRES   REMARKS
GARY /AIRPORT/ MOCLDY    51  47  84 CALM      30.30S
KNOX *+        MOCLDY    54  34  47 E3        30.29S
LA PORTE +     CLOUDY    56  39  54 CALM      30.31S
MICHIGAN CITY+ CLOUDY    50  36  57 CALM      30.30S
MONTICELLO +   PTCLDY    57  37  47 E7        30.28S
RENSSELAER +   MOCLDY    55  37  50 NE5       30.29S
VALPARAISO     CLOUDY    51  39  63 E6        30.30S

$$

LMZ046-743>745-230500-
SOUTHERN LAKE MICHIGAN

STATION/POSITION TIME  TEMP    WIND        PRES    WAVE
                       AIR SEA DIR/SP/G            HT
                 (UTC) (F)     (DEG/KT/KT) (MB)    (FT)
BURNS HARBOR     0400   55      60/  6/  6 1026.4S
MICHIGAN CITY    0400   55      70/  5/  6   N/A
5NW MICH CITY    0400   53 51  120/  4/  4   N/A     2

$$

INZ004-005-014>016-021>024-230500-
NORTH CENTRAL INDIANA

CITY           SKY/WX    TMP DP  RH WIND       PRES   REMARKS
GOSHEN         MOCLDY    52  35  52 NE7       30.30F
LOGANSPORT +   CLEAR     55  28  35 NE3       30.31R
PERU/GRISSOM   PTCLDY    53  39  60 NE9       30.29R
ROCHESTER +    MOCLDY    59  34  38 NE5       30.30S
SOUTH BEND     CLOUDY    55  31  39 CALM      30.31S
WARSAW +       CLOUDY    55  34  44 CALM      30.31R

$$

INZ006>009-017-018-025>027-230500-
NORTHEAST INDIANA

CITY           SKY/WX    TMP DP  RH WIND       PRES   REMARKS
ANGOLA *+      CLEAR     54  34  47 N3        30.30S
AUBURN +       MOCLDY    54  34  47 CALM      30.31S
FORT WAYNE     MOCLDY    56  37  49 N5        30.31R
HUNTINGTON +   CLOUDY    55  36  48 NE3       30.31R

$$

INZ028-029-035-036-043>045-051>053-230500-
WEST CENTRAL INDIANA

CITY           SKY/WX    TMP DP  RH WIND       PRES   REMARKS
CRAWFORDSVL +  PTCLDY    56  34  43 E5        30.29S
GREENCASTLE +  MOCLDY    55  46  71 CALM      30.29R
LAFAYETTE      PTCLDY    56  38  50 E5        30.28R
TERRE HAUTE    CLOUDY    63  53  70 CALM      30.27R

$$

INZ030>032-037>040-046>048-054>057-064-065-230500-
CENTRAL INDIANA

CITY           SKY/WX    TMP DP  RH WIND       PRES   REMARKS
CP ATTERBURY + CLEAR     52  50  93 CALM      30.30R
FISHERS *+     CLEAR     54  48  82 CALM      30.30R
FRANKFORT +    CLEAR     58  37  45 NE6       30.31R
GREENWOOD *+   CLEAR     59  46  63 CALM      30.30R
INDIANAPOLIS   PTCLDY    62  45  53 SW6       30.28R
-EAGLE CREEK   CLEAR     61  45  55 NE3       30.29R
KOKOMO *+      PTCLDY    55  34  44 E7        30.30R
MARION +       MOCLDY    57  38  48 NE7       30.31R
MT COMFORT *+  CLEAR     54  37  54 CALM      30.29S
SHELBYVILLE    PTCLDY    60  47  61 CALM      30.28R
ZIONSVILLE +   CLEAR     58  39  50 NE6       30.30R

$$

INZ033-034-041-042-049-050-058-059-230500-
EAST CENTRAL INDIANA

CITY           SKY/WX    TMP DP  RH WIND       PRES   REMARKS
MUNCIE         MOCLDY    58  42  55 NE3       30.30R

$$

INZ060-061-067>069-081>083-085>088-230500-
SOUTHWEST INDIANA

CITY           SKY/WX    TMP DP  RH WIND       PRES   REMARKS
EVANSVILLE     MOCLDY    64  54  69 CALM      30.29R
HUNTINGBURG *+ CLOUDY    63  50  63 S3        30.29S
WASHINGTON +   CLOUDY    58  51  77 CALM      30.28R

$$

INZ062-063-066-070>080-084-089>092-230500-
SOUTH CENTRAL AND SOUTHEAST INDIANA

CITY           SKY/WX    TMP DP  RH WIND       PRES   REMARKS
BLOOMINGTON    PTCLDY    56  52  86 CALM      30.28S
MADISON *+     CLEAR     54  48  82 CALM      30.32R
NORTH VERNON + CLEAR     54  54 100 CALM      30.30R
SEYMOUR +      CLEAR     55  48  76 CALM      30.29R

$$




USA.gov is the U.S. government's official web portal to all federal, state and local government web resources and services.